Regional Weather Roundup
Issued by NWS

Home | Current Version | Previous Version | Text Only | Print | Product List | Glossary Off
Versions: 1 2 3 4 5 6 7 8 9 10 11 12 13 14 15 16 17 18 19 20 21 22 23 24 25 26 27 28 29 30 31 32 33 34 35 36 37 38 39 40 41 42 43 44 45 46 47 48 49 50

220
ASUS43 KLSX 191957
RWRMO

WEATHER SUMMARY FOR MISSOURI
NATIONAL WEATHER SERVICE SPRINGFIELD MO
200 PM CST THU JAN 19 2017

NOTE: "FAIR" INDICATES FEW OR NO CLOUDS BELOW 12,000 FEET WITH NO
       SIGNIFICANT WEATHER AND/OR OBSTRUCTIONS TO VISIBILITY.
       CURRENT SKY AND/OR WEATHER CONDITIONS ARE NOT AVAILABLE FOR
       CHILLICOTHE AND FARMINGTON.

MOZ001>031-035>038-043-044-053-054-192100-
...NORTHERN AND WESTERN MISSOURI...

CITY           SKY/WX    TMP DP  RH WIND       PRES   REMARKS
KANSAS CTY INT CLOUDY    48  43  82 S8        29.69F
LEE`S SUMMIT   CLOUDY    47  46  97 SE8       29.69F
ST JOSEPH      CLOUDY    48  46  93 S5        29.69F
CHILLICOTHE      N/A     46  46 100 SE3       29.72F

$$
MOZ066>068-077>081-088>096-101>105-192100-
...SOUTHWEST MISSOURI...

CITY           SKY/WX    TMP DP  RH WIND       PRES   REMARKS
SPRINGFIELD    CLOUDY    51  48  89 S3        29.69F
JOPLIN         CLOUDY    52  48  86 S6        29.69F
BRANSON        CLOUDY    50  48  93 SE5       29.71F

$$
MOZ032>034-039>042-045>050-055>058-069>072-192100-
...CENTRAL MISSOURI...

CITY           SKY/WX    TMP DP  RH WIND       PRES   REMARKS
COLUMBIA       CLOUDY    46  46 100 SE6       29.71F FOG
JEFFERSON CITY CLOUDY    48  46  93 SE3       29.71F
ROLLA          CLOUDY    50  50 100 SE3       29.69F FOG
SEDALIA        CLOUDY    50  47  89 SE5       29.71F
WARRENSBURG    CLOUDY    48  45  87 SE6       29.70F

$$
MOZ051-052-059>065-192100-
...EAST CENTRAL MISSOURI...

CITY           SKY/WX    TMP DP  RH WIND       PRES   REMARKS
ST LOUIS INTL  LGT RAIN  47  44  90 E8        29.75F FOG
ST CHARLES     CLOUDY    46  45  93 E13       29.75F FOG

$$
MOZ072>076-082>087-097>100-106>115-192100-
...SOUTH CENTRAL AND SOUTHEAST MISSOURI...

CITY           SKY/WX    TMP DP  RH WIND       PRES   REMARKS
CAPE GIRARDEAU NOT AVBL
POPLAR BLUFF   FOG       49  49 100 N5        29.74F VSB 1/4
WEST PLAINS    FOG       49  49 100 SE5       29.72F VSB 1/4

$$



USA.gov is the U.S. government's official web portal to all federal, state and local government web resources and services.